Henderson City-County (EHR)

 

Airport Diagram
No Airport Diagram Available
Current Weather/Forecast (VFR Conditions)
METAR KEHR 071156Z AUTO 22005KT 10SM CLR 08/07 A3012 RMK AO2 SLP200 70019 T00830067 10094 20061 53009
TAF

Airport Information

All Charts
General
Chart Name View
TAKEOFF MINIMUMS
ALTERNATE MINIMUMS

Approaches
Chart Name Download
RNAV (GPS) RWY 09
RNAV (GPS) RWY 27
VOR-A


Airport Statistics
Departures Arrivals Local
All Collected Stats since June 2016: 14 11 1
2021 Stats: 1 6 0
May Stats: 0 0 0

Inbound Traffic (Arrivals) - 0

No inbound traffic.


Outbound Traffic (Departures) - 0

No outbound traffic.


Local Traffic (Pattern) - 0

No local traffic.